Kayseri, Turkey

2:34 PM +03 on February 27, 2017 (GMT +0300)
Erkilet Air Base

Weather History for LTAU - November, 2012

Change the Weather History Date:

Monday, November 5, 2012

  Actual Average Record
Temperature  
Mean Temperature 53 °F -  
Max Temperature 72 °F 51 °F 72 °F (2012)
Min Temperature 34 °F 28 °F 21 °F (1999)
Degree Days  
Heating Degree Days 12    
Growing Degree Days 3 (Base 50)    
Moisture  
Dew Point 36 °F    
Average Humidity 63    
Maximum Humidity 93    
Minimum Humidity 16    
Precipitation  
Precipitation 0.00 in - - ()
Sea Level Pressure  
Sea Level Pressure 30.13 in    
Wind  
Wind Speed 2 mph ()    
Max Wind Speed 6 mph    
Max Gust Speed -    
Visibility 7.3 miles    
Events      
Averages and records for this station are not official NWS values.
T = Trace of Precipitation, MM = Missing Value Source: Averaged Metar Reports

Daily Weather History Graph

Daily Weather History Graph

Search for Another Location

Airport or City:

Trip Planner

Search our weather history database for the weather conditions in past years. The results will help you decide how hot, cold, wet, or windy it might be!

Date:

Astronomy

Nov. 05, 2012 Rise Set
Actual Time 6:09 AM EET 4:33 PM EET
Civil Twilight 5:42 AM EET 5:01 PM EET
Nautical Twilight 5:10 AM EET 5:32 PM EET
Astronomical Twilight 4:39 AM EET 6:03 PM EET
Moon 9:50 PM EET (11/5) 11:16 AM EET (11/5)
Length of Visible Light 11h 19m
Length of Day
10h 23m
Waning Gibbous, 66% of the Moon is Illuminated
Nov 5
Waning Gibbous
Nov 7
Last Quarter
Nov 14
New
Nov 20
First Quarter
Nov 28
Full

Hourly Weather History & Observations

Time (EET) Temp. Windchill Dew Point Humidity Pressure Visibility Wind Dir Wind Speed Gust Speed Precip Events Conditions
12:20 AM 37.4 °F 33.8 °F 33.8 °F 87% 30.15 in - NE 4.6 mph - N/A   Clear
12:50 AM 41.0 °F - 35.6 °F 81% 30.15 in - Calm Calm - N/A   Clear
1:20 AM 39.2 °F - 35.6 °F 87% 30.15 in - NE 2.3 mph - N/A   Clear
1:50 AM 37.4 °F - 33.8 °F 87% 30.15 in - NE 2.3 mph - N/A   Clear
2:00 AM 37 °F - 33 °F 82%  in 12 mi NE 2.3 mph - -  
2:20 AM 37.4 °F - 35.6 °F 93% 30.15 in - ENE 2.3 mph - N/A   Clear
2:50 AM 37.4 °F - 35.6 °F 93% 30.15 in - NE 2.3 mph - N/A   Clear
3:20 AM 39.2 °F - 35.6 °F 87% 30.15 in - NNE 1.2 mph - N/A   Clear
3:50 AM 35.6 °F 32.8 °F 33.8 °F 93% 30.15 in - NE 3.5 mph - N/A   Clear
4:20 AM 35.6 °F 31.7 °F 33.8 °F 93% 30.15 in - NE 4.6 mph - N/A   Clear
4:50 AM 35.6 °F - 33.8 °F 93% 30.15 in - NE 2.3 mph - N/A   Clear
5:20 AM 35.6 °F - 33.8 °F 93% 30.15 in - ENE 1.2 mph - N/A   Clear
5:50 AM 35.6 °F - 33.8 °F 93% 30.18 in - NE 1.2 mph - N/A   Clear
6:20 AM 35.6 °F - 32.0 °F 87% 30.18 in - NE 2.3 mph - N/A   Clear
6:50 AM 35.6 °F - 33.8 °F 93% 30.18 in - NE 1.2 mph - N/A   Clear
7:20 AM 41.0 °F - 37.4 °F 87% 30.18 in - NNE 1.2 mph - N/A   Clear
7:50 AM 44.6 °F 43.1 °F 39.2 °F 81% 30.18 in - NE 3.5 mph - N/A   Clear
8:00 AM 45 °F - 39 °F 72%  in 12 mi NE 3.5 mph - -   Partly Cloudy
8:20 AM 48.2 °F - 39.2 °F 71% 30.18 in 6.2 mi Calm Calm - N/A   Scattered Clouds
8:50 AM 53.6 °F - 39.2 °F 58% 30.18 in 6.2 mi Calm Calm - N/A   Mostly Cloudy
9:20 AM 57.2 °F - 41.0 °F 55% 30.18 in 6.2 mi Variable 1.2 mph - N/A   Mostly Cloudy
9:50 AM 59.0 °F - 39.2 °F 48% 30.18 in 6.2 mi Variable 1.2 mph - N/A   Mostly Cloudy
10:20 AM 60.8 °F - 39.2 °F 45% 30.18 in 6.2 mi Calm Calm - N/A   Mostly Cloudy
10:50 AM 64.4 °F - 39.2 °F 40% 30.15 in 6.2 mi Calm Calm - N/A   Mostly Cloudy
11:20 AM 64.4 °F - 39.2 °F 40% 30.15 in 6.2 mi Calm Calm - N/A   Mostly Cloudy
11:50 AM 66.2 °F - 41.0 °F 40% 30.12 in 6.2 mi Variable 1.2 mph - N/A   Mostly Cloudy
12:20 PM 69.8 °F - 39.2 °F 33% 30.12 in 6.2 mi Calm Calm - N/A   Mostly Cloudy
12:50 PM 69.8 °F - 37.4 °F 31% 30.12 in 6.2 mi Variable 1.2 mph - N/A   Mostly Cloudy
1:20 PM 69.8 °F - 35.6 °F 28% 30.09 in 6.2 mi SW 3.5 mph - N/A   Mostly Cloudy
1:50 PM 71.6 °F - 35.6 °F 27% 30.09 in 6.2 mi Calm Calm - N/A   Scattered Clouds
2:00 PM 71 °F - 35 °F 16%  in 12 mi Calm Calm - -   Scattered Clouds
2:20 PM 71.6 °F - 35.6 °F 27% 30.09 in 6.2 mi Calm Calm - N/A   Scattered Clouds
2:50 PM 69.8 °F - 35.6 °F 28% 30.09 in 6.2 mi Calm Calm - N/A   Scattered Clouds
3:20 PM 69.8 °F - 33.8 °F 27% 30.09 in 6.2 mi Calm Calm - N/A   Scattered Clouds
3:50 PM 69.8 °F - 35.6 °F 28% 30.09 in 6.2 mi Calm Calm - N/A   Scattered Clouds
4:20 PM 64.4 °F - 37.4 °F 37% 30.09 in 6.2 mi Calm Calm - N/A   Scattered Clouds
4:50 PM 59.0 °F - 39.2 °F 48% 30.09 in - Calm Calm - N/A   Clear
5:20 PM 57.2 °F - 37.4 °F 48% 30.09 in - Calm Calm - N/A   Clear
5:50 PM 53.6 °F - 39.2 °F 58% 30.09 in - NE 1.2 mph - N/A   Clear
6:20 PM 51.8 °F - 37.4 °F 58% 30.09 in - ENE 2.3 mph - N/A   Clear
6:50 PM 50.0 °F - 35.6 °F 58% 30.09 in - NNE 3.5 mph - N/A   Clear
7:20 PM 48.2 °F - 35.6 °F 62% 30.09 in - NE 5.8 mph - N/A   Clear
7:50 PM 50.0 °F - 33.8 °F 54% 30.09 in - Variable 1.2 mph - N/A   Clear
8:00 PM 50 °F - 34 °F 43%  in 12 mi NE 1.2 mph - -  
8:20 PM 46.4 °F - 35.6 °F 66% 30.12 in - Variable 1.2 mph - N/A   Clear
8:50 PM 46.4 °F - 35.6 °F 66% 30.12 in - Calm Calm - N/A   Clear
9:20 PM 44.6 °F - 35.6 °F 71% 30.12 in - Calm Calm - N/A   Clear
9:50 PM 41.0 °F - 33.8 °F 76% 30.12 in - NE 2.3 mph - N/A   Clear
10:20 PM 44.6 °F 43.1 °F 37.4 °F 76% 30.12 in - NNE 3.5 mph - N/A   Clear
10:50 PM 44.6 °F 42.2 °F 35.6 °F 71% 30.12 in - North 4.6 mph - N/A   Clear
11:20 PM 41.0 °F 38.0 °F 33.8 °F 76% 30.12 in - NE 4.6 mph - N/A   Clear
11:50 PM 41.0 °F - 33.8 °F 76% 30.12 in - Calm Calm - N/A   Clear